Location: Wangen+im+Allg�u
(47.7098°N, 9.8383°E)
Time: 17:55:04
(UTC+01:00)

ISS - Pass Details

Date: 15 November 2017
Orbit: 402 x 407 km, 51.6° (Epoch: 24 November)

Event Time Altitude Azimuth Distance (km) Brightness Sun altitude
Exits shadow 06:27:59 13° 266° (W) 1,276 -1.9 -9.9°
Maximum altitude 06:30:00 22° 220° (SW) 937 -2.2 -9.6°
Drops below altitude 10° 06:32:35 10° 167° (SSE) 1,448 -0.6 -9.2°
Sets 06:34:56 0° 152° (SSE) 2,303 0.8 -8.8°
